Regional Weather Roundup
Issued by NWS Newport/Morehead, NC

Current Version | Previous Version | Graphics & Text | Print | Product List | Glossary Off
Versions: 1 2 3 4 5 6 7 8 9 10 11 12 13 14 15 16 17 18 19 20 21 22 23 24 25 26 27 28 29 30 31 32 33 34 35 36 37 38 39 40 41 42 43 44 45 46 47 48 49 50

000
ASUS42 KMHX 100112
RWRMHX
WEATHER ROUNDUP FOR EASTERN NORTH CAROLINA
NATIONAL WEATHER SERVICE NEWPORT/MOREHEAD CITY NC
800 PM EST FRI DEC 09 2016

NOTE: "FAIR" INDICATES FEW OR NO CLOUDS BELOW 12,000 FEET
WITH NO SIGNIFICANT WEATHER AND/OR OBSTRUCTIONS TO VISIBILITY

NCZ015>017-031-032-045>047-102-103-100200-
NORTH COAST

CITY           SKY/WX    TMP DP  RH WIND       PRES   REMARKS
EDENTON        CLEAR     34  21  59 CALM      30.44R
ELIZABETH CITY CLEAR     31  18  58 NW8       30.42R
KITTY HAWK     CLEAR     37  22  54 NW5       30.40R
MANTEO         CLEAR     37  18  45 N6        30.42R

$$

NCZ045>047-081-094-103-104-100200-
CENTRAL COAST

CITY           SKY/WX    TMP DP  RH WIND       PRES   REMARKS
FRISCO         CLEAR     39  19  44 VRB7      30.41R

$$

NCZ095-097-098-100-101-100200-
SOUTHERN COAST

CITY           SKY/WX    TMP DP  RH WIND       PRES   REMARKS
BEAUFORT       CLEAR     37  23  56 N7        30.44R
CEDAR ISLAND   NOT AVBL
JACKSONVILLE   CLEAR     33  20  58 NW6       30.45R
PINEY ISLAND   CLEAR    N/A N/A N/A N13       30.42R
WILMINGTON     PTCLDY    34  23  64 N5        30.45R


$$

NCZ011>013-027>030-043-044-078>080-089-090>093-098-100200-
COASTAL PLAIN

CITY           SKY/WX    TMP DP  RH WIND       PRES   REMARKS
AHOSKIE        CLEAR     29  19  65 CALM      30.44F
CLINTON        CLEAR     33  22  62 CALM      30.46R
ELIZABETHTOWN  CLEAR     32  23  69 CALM      30.45S
GOLDSBORO      CLEAR     35  15  44 CALM      30.44R
GREENVILLE     CLEAR     34  19  55 CALM      30.44S
HAVELOCK       CLEAR     36  21  54 NW8       30.44R
KENANSVILLE    CLEAR     27  21  80 CALM      30.45S
KINSTON        CLEAR     28  23  80 CALM      30.46R
NEW BERN       CLEAR     31  22  69 CALM      30.46R
RICHLANDS      CLEAR     30  23  75 CALM      30.46
ROCKY MOUNT    CLEAR     27  20  75 CALM      30.45R
WASHINGTON     CLEAR     33  18  54 NW5       30.44S
WHITEVILLE     CLEAR     32  26  77 CALM      30.45R

$$

AMZ130-135-150-152-154-156-158-170-250-252-270-ANZ085-086-088-633-658-670-100200-
MARINE OBSERVATIONS

STATION/POSITION TIME  TEMP    WIND        PRES    WAVE   SWELL
                       AIR SEA DIR/SP/G            HT/PER HT/PER
                 (UTC) (F)     (DEG/KT/KT) (MB)    (FT/S) (FT/S)
CHESAPEAKE LIGHT NOT AVBL
64 E VA BEACH    0050   43 58  320/ 23/ 29 1027.8    6/ 6
DUCK             0048   38 52  320/ 16/ 18 1029.0
2 E DUCK         NOT AVBL
OREGON INLET     0042   37 51  330/  8/ 13 1029.5
13E OREGON INLT  NOT AVBL
HATTERAS CG      0048   41 54  320/ 15/ 19 1029.4
DIAMOND BUOY     0050   43 77  350/ 17/ 23 1029.3    5/ 9   3/ 9
CAPE LOOKOUT     0000   40     340/ 13/ 16 1029.4
BEAUFORT LAB     0048   39 52  340/  9/ 11 1029.4
30 SE NEW RVR IN 0008   44 69  350/ 14/ 19 1029.7
30 SE NEW RVR IN 0043      69                N/A     3/ 4
27 SE WRIGHTSVLE 0008   45 69  360/ 14/ 23 1029.4
5 SE WRIGHTSVLE  0008   40 60  360/ 16/ 29 1029.8
225 S CAPE HAT   2350   59 73  350/ 16/ 23 1025.7    6/ 8   3/ 8
41 SE CHARLESTON 2350   50 72  350/ 16/ 21 1029.1    4/ 6   2/ 7

$$




USA.gov is the U.S. government's official web portal to all federal, state and local government web resources and services.